Preview of NWS' New Version of Forecast
This preview is not operational and should not be used for support decisions.
Latest weather observations around

Vaiden Fld Airport (KA08)

Using English Units (Switch to International System of Units)
Date/ Time (CDT) Wind (mph) Vis. (mi) Weather Sky Cond. Temp (°F) Rel. Humidity Wind Chill (°F) Heat Index (°F) Pressure Precip. (in)
Air Dwpt 6 hour Altimeter (inHg) Sea level (inHg) 1 hr 3 hr 6 hr
Max Min
Apr 21 13:55 E 7 10 Partly Cloudy SCT043 74 54     51%   73 30.17        
Apr 21 13:35 SE 11 10 Mostly Cloudy BKN043 BKN065 73 54     52%   72 30.19        
Apr 21 13:15 SE 9 10 Mostly Cloudy BKN043 BKN065 72 54     52%   72 30.2        
Apr 21 12:55 SE 9 10 Partly Cloudy SCT036 SCT046 SCT060 72 54     53%   71 30.2        
Apr 21 12:35 SSE 11 10 Mostly Cloudy SCT036 SCT050 BKN060 71 52     52%   70 30.2        
Apr 21 12:15 ESE 7 10 Mostly Cloudy BKN050 71 52     53%   70 30.2        
Apr 21 11:55 SSE 9 10 Partly Cloudy SCT050 70 51     51%     30.21        
Apr 21 11:35 ESE 11 10 Clear CLR 69 51     52%     30.22        
Apr 21 11:15 SE 10 10 Clear CLR 69 50     51%     30.22        
Apr 21 10:55 SE 9 10 Clear CLR 67 48     51%     30.23        
Apr 21 10:35 SSE 11 10 Clear CLR 67 47     50%     30.23        
Apr 21 10:15 SE 11 10 Clear CLR 65 46     51%     30.23        
Apr 21 09:55 SSE 11 10 Clear CLR 64 46     53%     30.23        
Apr 21 09:35 SSE 9 10 Clear CLR 62 46     54%     30.23        
Apr 21 09:15 SE 9 10 Clear CLR 60 45     57%     30.24        
Apr 21 08:55 SE 6 10 Clear CLR 59 45     59%     30.24        
Apr 21 08:35 SE 10 10 Clear CLR 57 44     62%     30.25        
Apr 21 08:15 ESE 6 10 Clear CLR 55 43     65%     30.24        
Apr 21 07:55 ESE 5 10 Clear CLR 53 43     68%     30.24        
Apr 21 07:35 E 5 10 Clear CLR 51 41     70%     30.24        
Apr 21 07:15 E 3 10 Clear CLR 49 41     73% 49   30.24        
Apr 21 06:55 SSE 5 10 Clear CLR 48 40     74% 46   30.23        
Apr 21 06:35 SE 3 10 Clear CLR 47 40     75% 46   30.23        
Apr 21 06:15 ESE 3 10 Clear CLR 48 40     73% 47   30.22        
Apr 21 05:55 ESE 3 10 Clear CLR 48 40     72% 47   30.22        
Apr 21 05:35 SE 3 10 Clear CLR 48 40     72% 47   30.22        
Apr 21 05:15 ESE 3 10 Clear CLR 48 40     72% 47   30.22        
Apr 21 04:55 Calm 10 Clear CLR 48 40     72%     30.21        
Apr 21 04:35 Calm 10 Clear CLR 49 40     71%     30.22        
Apr 21 04:15 Calm 10 Clear CLR 49 40     70%     30.22        
Apr 21 03:55 Calm 10 Clear CLR 49 40     71%     30.21        
Apr 21 03:35 Calm 10 Clear CLR 49 40     70%     30.22        
Apr 21 03:15 Calm 10 Clear CLR 50 40     69%     30.21        
Apr 21 02:55 Calm 10 Clear CLR 51 40     67%     30.21        
Apr 21 02:35 Calm 10 Clear CLR 51 40     66%     30.21        
Apr 21 02:15 Calm 10 Clear CLR 51 41     68%     30.21        
Apr 21 01:55 Calm 10 Clear CLR 51 41     70%     30.22        
Apr 21 01:35 Calm 10 Clear CLR 51 42     73%     30.22        
Apr 21 01:15 Calm 10 Clear CLR 49 44     83%     30.22        
Apr 21 00:55 Calm 10 Clear CLR 49 45     87%     30.22        
Apr 21 00:35 Calm 10 Clear CLR 51 44     77%     30.22        
Apr 21 00:15 Calm 10 Clear CLR 50 45     82%     30.22        
Apr 20 23:55 Calm 10 Clear CLR 51 44     75%     30.22        
Apr 20 23:35 Calm 10 Clear CLR 52 43     70%     30.22        
Apr 20 23:15 Calm 10 Clear CLR 51 44     77%     30.22        
Apr 20 22:55 Calm 10 Clear CLR 52 44     73%     30.22        
Apr 20 22:35 Calm 10 Clear CLR 53 44     71%     30.22        
Apr 20 22:15 Calm 10 Clear CLR 53 45     72%     30.22        
Apr 20 21:55 Calm 10 Clear CLR 54 45     71%     30.22        
Apr 20 21:35 Calm 10 Clear CLR 54 44     68%     30.22        
Apr 20 21:15 Calm 10 Clear CLR 56 45     66%     30.22        
Apr 20 20:55 Calm 10 Clear CLR 57 44     63%     30.22        
Apr 20 20:35 Calm 10 Clear CLR 59 44     56%     30.22        
Apr 20 20:15 SE 3 10 Clear CLR 62 42     49%     30.21        
Apr 20 19:55 S 3 10 Clear CLR 63 42     46%     30.21        
Apr 20 19:35 S 5 10 Clear CLR 65 41     42%     30.21        
Apr 20 19:15 E 3 10 Clear CLR 67 39     36%     30.2        
Apr 20 18:55 ENE 3 10 Clear CLR 69 40     34%     30.2        
Apr 20 18:35 ENE 6 10 Clear CLR 70 39     33%     30.2        
Apr 20 18:15 NE 6 10 Clear CLR 71 39     32%   69 30.2        
Apr 20 17:55 E 6 10 Clear CLR 71 39     31%   70 30.2        
Apr 20 17:35 ENE 6 10 Clear CLR 72 39     30%   70 30.2        
Apr 20 17:15 E 6 10 Clear CLR 72 39     30%   70 30.2        
Apr 20 16:55 E 7 10 Clear CLR 72 40     31%   70 30.2        
Apr 20 16:35   10 Clear CLR 72 39     31%   70 30.21        
Apr 20 16:15   10 Clear CLR 72 39     31%   70 30.21        
Apr 20 15:55 NE 6 10 Clear CLR 71 39     31%   69 30.21        
Apr 20 15:35   10 Clear CLR 72 39     30%   70 30.22        
Apr 20 15:15 ENE 5 10 Clear CLR 71 39     31%   69 30.23        
Apr 20 14:55 ESE 7 10 Clear CLR 70 38     31%   69 30.23        
Apr 20 14:35 ENE 8 10 Clear CLR 70 38     31%   68 30.24        
Apr 20 14:15 ESE 8 10 Clear CLR 69 38     32%     30.24        
Apr 20 13:55 E 5 10 Clear CLR 69 38     32%     30.25        
Apr 20 13:35 NNE 9 10 Clear CLR 68 38     33%     30.25        
Apr 20 13:15 E 10 10 Clear CLR 66 38     35%     30.26        
Apr 20 12:55 SSE 6 10 Clear CLR 66 38     36%     30.27        
Apr 20 12:35 ENE 7 10 Clear CLR 65 37     36%     30.27        
Apr 20 12:15 NE 5 10 Clear CLR 64 36     36%     30.28        
Apr 20 11:55 E 3 10 Clear CLR 63 36     37%     30.29        
Apr 20 11:35 NNE 5 10 Clear CLR 61 35     38%     30.3        
Apr 20 11:15 ESE 5 10 Clear CLR 61 35     38%     30.3        
Apr 20 10:55 ESE 6 10 Clear CLR 60 34     38%     30.3        
Apr 20 10:35 ESE 7 10 Clear CLR 59 34     39%     30.3        
Apr 20 10:15 E 7 10 Clear CLR 57 33     40%     30.3        
Apr 20 09:55 E 7 10 Clear CLR 56 34     44%     30.3        
Apr 20 09:35 E 7 10 Clear CLR 55 35     47%     30.3        
Apr 20 09:15 ENE 3 10 Clear CLR 53 36     54%     30.29        
Apr 20 08:55 E 9 10 Clear CLR 51 36     57%     30.29        
Apr 20 08:35 ENE 5 10 Clear CLR 49 36     61% 47   30.29        
Apr 20 08:15 ENE 5 10 Clear CLR 47 36     63% 45   30.29        
Apr 20 07:55 N 5 10 Clear CLR 46 35     64% 44   30.29        
Apr 20 07:35 NNE 7 10 Clear CLR 44 35     68% 40   30.29        
Apr 20 07:15 N 6 10 Clear CLR 44 35     71% 40   30.28        
Apr 20 06:55 NNW 6 10 Clear CLR 42 35     74% 39   30.28        
Apr 20 06:35 N 7 10 Clear CLR 42 35     75% 38   30.27        
Apr 20 06:15 N 6 10 Clear CLR 42 35     75% 38   30.26        
Apr 20 05:55 N 7 10 Clear CLR 42 35     75% 37   30.25        
Apr 20 05:35 N 7 10 Clear CLR 42 35     75% 38   30.25        
Apr 20 05:15 N 7 10 Clear CLR 42 35     75% 38   30.24        
Apr 20 04:55 N 7 10 Clear CLR 43 35     74% 38   30.24        
Apr 20 04:35 N 7 10 Clear CLR 43 35     74% 39   30.24        
Apr 20 04:15 N 7 10 Clear CLR 43 35     73% 39   30.23        
Apr 20 03:55 N 7 10 Clear CLR 43 35     72% 39   30.23        
Apr 20 03:35 N 8 10 Clear CLR 44 35     71% 39   30.23        
Apr 20 03:15 N 7 10 Clear CLR 44 35     72% 40   30.23        
Apr 20 02:55 NNW 6 10 Clear CLR 44 36     72% 41   30.23        
Apr 20 02:35 N 6 10 Clear CLR 45 35     69% 42   30.22        
Apr 20 02:15 N 7 10 Clear CLR 45 35     67% 42   30.22        
Apr 20 01:55 N 6 10 Clear CLR 45 35     67% 42   30.22        
Apr 20 01:35 N 5 10 Clear CLR 46 36     67% 44   30.23        
Apr 20 01:15 N 5 10 Clear CLR 47 35     64% 45   30.23        
Apr 20 00:55 N 5 10 Clear CLR 48 35     61% 46   30.23        
Apr 20 00:35 N 5 10 Clear CLR 49 35     59% 47   30.23        
Apr 20 00:15 N 7 10 Clear CLR 49 35     58% 46   30.23        
Apr 19 23:55 N 8 10 Clear CLR 50 35     56% 47   30.23        
Apr 19 23:35 NNE 6 10 Clear CLR 50 35     55%     30.22        
Apr 19 23:15 NNE 7 10 Clear CLR 51 35     54%     30.23        
Apr 19 22:55 N 7 10 Clear CLR 51 36     55%     30.23        
Apr 19 22:35 N 7 10 Clear CLR 52 36     53%     30.23        
Notice The following observation data may not be complete
Apr 19 22:15   10 Clear CLR          %              
Apr 19 21:55 N 7 10 Clear CLR 54 37     54%     30.23        
Notice The following observation data may not be complete
Apr 19 21:35   10 Clear CLR          %              
Apr 19 21:15 N 7 10 Clear CLR 55 38     54%     30.22        
Apr 19 20:35 NNW 8 10 Clear CLR 56 40     53%     30.21        
Apr 19 20:15 NNW 10 10 Clear CLR 57 40     52%     30.2        
Apr 19 19:55 NNW 9 10 Clear CLR 58 40     52%     30.19        
Apr 19 19:35 NNW 9 10 Clear CLR 59 40     50%     30.19        
Apr 19 19:15 NNW 10 10 Clear CLR 60 40     47%     30.18        
Apr 19 18:55 NNW 11 10 Clear CLR 61 40     45%     30.17        
Apr 19 18:35 NNW 11 10 Clear CLR 63 40     43%     30.17        
Apr 19 18:15 NNW 11 10 Clear CLR 64 39     40%     30.17        
Apr 19 17:55 NNW 11 10 Clear CLR 65 39     39%     30.16        
Apr 19 17:35 NNW 16 10 Clear CLR 65 39     38%     30.15        
Apr 19 17:15 NNW 13 10 Clear CLR 66 41     39%     30.15        
Apr 19 16:55 NW 9 10 Clear CLR 66 40     38%     30.14        
Apr 19 16:35 NW 17 10 Clear CLR 67 41     38%     30.15        
Apr 19 16:15 NNW 16 10 Clear CLR 67 40     38%     30.15        
Apr 19 15:55 NNW 18 10 Clear CLR 67 40     38%     30.15        
Apr 19 15:35 NNW 14 10 Clear CLR 67 41     38%     30.15        
Apr 19 15:15 NNW 10 10 Clear CLR 67 40     38%     30.16        
Apr 19 14:55 NW 14 10 Clear CLR 67 40     38%     30.16        
Apr 19 14:35 NNW 15 10 Clear CLR 67 41     39%     30.17        
Apr 19 14:15 NW 13 10 Clear CLR 67 41     39%     30.17        
Apr 19 13:35 NNW 17 10 Clear CLR 66 40     39%     30.17        
Apr 19 13:15 NNW 15 10 Clear CLR 66 41     41%     30.17        
Apr 19 12:55 NW 16 10 Clear CLR 65 42     42%     30.18        
Apr 19 12:35 NNW 10 10 Clear CLR 65 41     41%     30.17        
Apr 19 12:15 WNW 14 10 Clear CLR 65 40     41%     30.18        
Apr 19 11:55 NW 17 10 Clear CLR 64 40     42%     30.17        
Apr 19 11:35 NNW 16 10 Clear CLR 64 40     42%     30.17        
Apr 19 11:15 WNW 16 10 Clear CLR 63 42     46%     30.17        
Apr 19 10:55 NNW 11 10 Clear CLR 63 41     45%     30.16        
Apr 19 10:35 NW 11 10 Clear CLR 63 42     46%     30.16        
Apr 19 10:15 NNW 13 10 Clear CLR 62 39     43%     30.15        
Apr 19 09:55 NNW 11 10 Clear CLR 62 42     47%     30.15        
Apr 19 09:15 NNW 15 10 Clear CLR 61 43     50%     30.14        
Apr 19 08:55 NNW 18 10 Clear CLR 61 43     51%     30.13        
Apr 19 08:35 NNW 13 10 Clear CLR 60 44     54%     30.12        
Apr 19 08:15 NNW 13 10 Clear CLR 60 45     57%     30.11        
Apr 19 07:55 NNW 11 10 Clear CLR 60 45     57%     30.11        
Apr 19 07:35 NNW 10 10 Clear CLR 59 46     61%     30.1        
Notice The following observation data may not be complete
Apr 19 07:15   10 Clear CLR          %              
Apr 19 06:55 NNW 11 10 Clear CLR 59 47     66%     30.08        
Apr 19 06:35 NNW 13 10 Clear CLR 60 49     68%     30.07        
Apr 19 06:15 NNW 14 10 Clear CLR 60 55     83%     30.04        
Apr 19 05:55 NW 10 10 Clear CLR 61 58     89%     30.03        
Apr 19 05:35 NW 10 10 Clear CLR 62 58     89%     30.02        
Apr 19 05:15 NW 9 10 Clear CLR 63 59     88%     30.01        
Apr 19 04:55 NW 11 10 Clear CLR 63 60     88%     30.01        
Apr 19 04:35 NW 10 10 Partly Cloudy SCT049 64 60     86%     30        
Apr 19 04:15 WNW 9 10 Partly Cloudy SCT049 SCT055 65 60     85%     29.99        
Apr 19 03:55 WNW 10 10 Clear CLR 65 61     86%     29.99        
Apr 19 03:35 WNW 7 10 Clear CLR 64 61     89%     29.98        
Apr 19 03:15 Calm 10 Clear CLR 63 61     92%     29.97        
Apr 19 02:55 Calm 10 Clear CLR 63 61     93%     29.97        
Apr 19 02:35 Calm 10 Clear CLR 63 61     91%     29.97        
Apr 19 02:15 SW 3 10 Clear CLR 64 61     89%     29.97        
Apr 19 01:55 SW 5 10 Partly Cloudy SCT049 SCT060 65 60     85%     29.98        
Apr 19 01:35 SW 6 10 Mostly Cloudy SCT049 BKN060 65 60     82%     29.98        
Apr 19 01:15 SSW 5 10 Mostly Cloudy BKN060 66 60     81%     29.99        
Apr 19 00:55 SSW 5 10 Cloudy OVC060 66 59     79%     29.99        
Apr 19 00:35 SSW 6 10 Cloudy OVC060 66 59     78%     29.99        
Apr 19 00:15 SSW 7 10 Cloudy OVC060 67 59     77%     30        
Apr 18 23:55 SSW 8 10 Cloudy OVC060 67 59     76%     30        
Apr 18 23:35 SSW 7 10 Cloudy OVC060 67 60     78%     29.99        
Apr 18 23:15 S 7 10 Cloudy OVC060 67 60     79%     29.99        
Apr 18 22:55 Calm 10 Cloudy SCT050 OVC055 69 60     73%     29.99        
Apr 18 22:35 W 8 10 Cloudy OVC050 69 59     70%     29.99        
Apr 18 22:15 W 5 10 Mostly Cloudy BKN050 69 58     69%     29.99        
Apr 18 21:55 W 3 10 Partly Cloudy SCT055 68 58     71%     29.99        
Apr 18 21:35 W 5 10 Clear CLR 69 58     68%     29.98        
Apr 18 21:15 WSW 5 10 Clear CLR 70 58     66%     29.98        
Apr 18 20:55 WSW 5 10 Clear CLR 71 58     63%   70 29.97        
Apr 18 20:35 W 5 10 Clear CLR 71 57     62%   71 29.96        
Apr 18 20:15 W 9 10 Clear CLR 72 57     58%   72 29.96        
Apr 18 19:55 W 7 10 Clear CLR 73 56     57%   72 29.96        
Apr 18 19:35 W 7 10 Clear CLR 74 56     54%   73 29.95        
Apr 18 19:15 W 5 10 Clear CLR 75 56     51%   75 29.95        
Apr 18 18:55 W 6 10 Clear CLR 77 56     47%   77 29.94        
Apr 18 18:35   10 Clear CLR 79 54     43%   78 29.94        
Apr 18 18:15   10 Clear CLR 80 54     41%   79 29.94        
Apr 18 17:55   10 Clear CLR 81 53     38%   80 29.94        
Apr 18 17:35   10 Clear CLR 81 53     37%   81 29.93        
Apr 18 17:15   10 Clear CLR 82 54     39%   81 29.93        
Apr 18 16:55   10 Clear CLR 82 54     38%   81 29.93        
Apr 18 16:35 SSW 15 10 Clear   82 54     39%   81 29.93        
Apr 18 16:15   10 Clear CLR 82 55     40%   81 29.94        
Apr 18 15:55 SW 14 10 Clear CLR 81 53     38%   81 29.95        
Apr 18 15:35   10 Clear CLR 81 56     41%   81 29.95        
Apr 18 15:15   10 Clear CLR 81 56     43%   81 29.96        
Apr 18 14:55 SW 15 10 Clear CLR 80 55     42%   80 29.97        
Apr 18 14:35 SSW 16 10 Clear CLR 80 57     46%   80 29.98        
Apr 18 14:15   10 Clear CLR 80 58     47%   80 29.99        
Apr 18 13:35   10 Clear CLR 77 58     52%   77 30.01        
Apr 18 13:15 SSW 9 10 Clear CLR 76 59     56%   76 30.02        
Apr 18 12:55 SW 8 10 Clear CLR 75 57     54%   75 30.02        
Jun 11 22:55   10 Clear CLR 73 73     100%   75 30.11        
Notice The following observation data may not be complete
Jun 11 18:15   7 Light Rain SCT046 SCT065 OVC110          %         0    
Notice The following observation data may not be complete
Jun 11 17:35   10 Light Rain SCT027 SCT032 OVC048   72      %     30.07        
Jun 11 16:55 ESE 7 10 Mostly Cloudy BKN048 BKN055 89 71     55%   94 30.04        
Jun 11 15:15 E 7 10 Partly Cloudy SCT050 88 69     52%   93 30.07        
Notice The following observation data may not be complete
Jun 11 14:35   10 Mostly Cloudy BKN050          %              
Jun 11 10:15 SSE 10 10 Clear CLR 82 67     60%   85 30.13        
Jun 10 10:15 SSE 3 10 Clear CLR 80 67     64%   83 30.06        
Jun 10 08:55   0.25 Cloudy OVC080 76 68     76%   77 30.06        
Jun 10 08:35 Calm 0.25 Cloudy OVC080 74 68     81%   75 30.05        
Jun 10 03:55 Calm 10 Partly Cloudy SCT075 64 64     100%     29.98        
Jun 10 02:35 Calm 10 Cloudy SCT065 OVC075 64 64     100%     29.98        
Jun 10 01:55 S 7 10 Cloudy OVC075 65 64     97%     29.98        
Notice The following observation data may not be complete
Jun 09 23:35   10 Clear CLR          %              
Notice The following observation data may not be complete
Jun 09 20:35   10 Clear CLR          %              
Jun 09 16:15 Calm 10 Clear CLR 82 57     43%   82 29.92        
Jun 09 11:35   10 Clear CLR 79 60     51%   79 29.98        
Jun 09 03:35 Calm 10 Clear CLR 60 59     97%     29.89        
Jun 09 02:55 WNW 3 10 Clear   60 60     99%     29.9        
Jun 09 02:35 Calm 10 Clear CLR 61 60     97%     29.9        
Jun 09 00:15 NNW 6 10 Clear CLR 65 60     83%     29.91        
Jun 08 23:55 NNW 3 10 Clear CLR 65 60     85%     29.91        
Jun 08 16:50 NW 6 10 Clear CLR 80 57     45%   80 29.86        
Jun 08 13:30 WNW 11 10 Partly Cloudy SCT050 79 59     50%   79 29.9        
Jun 08 07:55 N 3 10 Clear   67 58     71%     29.92        
Jun 08 03:15 N 6 10 Clear CLR 64 55     73%     29.84        
Jun 07 17:50   10 Clear CLR 82 59     47%   82 29.79        
Jun 07 08:15 N 7 10 Clear CLR 71 64     78%   72 29.79        
Jun 06 14:55 NE 3 10 Rain SCT005 BKN047 OVC070 70 70     99%   72 29.72   1    
Jun 06 09:15   10 Cloudy OVC005 75 73     94%   76 29.77        
Jun 05 19:35 SSE 5 10 Light Rain SCT050 SCT065 BKN095 70 70     99%     29.77   0